Date String (YYYY-MM-DD hh:mm:ss) UTC,Instrument flags,Ambient pressure (hPa),Sample flow (lpm),Bypass flow (lpm),Sample temperature (°C),Ambient temperature (°C),ASC tube jacket temperature (°C),LED temperature (°C),Box temperature (°C),Sample RH (%),Span deviation,Mass concentration (μg/m³),Mass concentration (μg/m³),Mass concentration (μg/m³)
DateTimeUTC,F1_M11,P_M11,Q1_M11,Q2_M11,T1_M11,T2_M11,T3_M11,T4_M11,T5_M11,U1_M11,ZSPAN_M11,X2_M11,X0_M11,X1_M11
2023-04-30 02:00:00,,0831.0,5.00,0.00,30.4,29.2,00.0,38.7,32.0,13.1,0000.0,0004.45,0014.70,0002.45
2023-04-30 02:01:00,,0831.1,5.00,0.00,30.4,29.1,00.0,38.7,32.0,12.9,0000.0,0004.43,0013.52,0002.47
2023-04-30 02:02:00,,0831.1,5.00,0.00,30.4,27.7,00.0,38.7,31.8,12.9,0000.0,0004.38,0012.89,0002.47
2023-04-30 02:03:00,,0831.1,5.01,0.00,30.3,26.1,00.0,38.6,31.6,13.1,0000.0,0004.34,0012.39,0002.44
2023-04-30 02:04:00,,0831.1,5.00,0.00,30.2,25.9,00.0,38.5,31.4,13.4,0000.0,0004.31,0012.18,0002.43
2023-04-30 02:05:00,,0831.0,4.99,0.00,30.1,26.1,00.0,38.5,31.3,13.3,0000.0,0004.30,0012.22,0002.43
2023-04-30 02:06:00,,0831.1,4.99,0.00,30.1,26.5,00.0,38.5,31.3,13.3,0000.0,0004.27,0013.08,0002.40
2023-04-30 02:07:00,,0831.1,5.01,0.00,30.0,26.8,00.0,38.5,31.3,13.4,0000.0,0004.20,0013.10,0002.37
2023-04-30 02:08:00,,0831.1,5.01,0.00,30.0,27.1,00.0,38.5,31.3,13.5,0000.0,0004.22,0013.14,0002.35
2023-04-30 02:09:00,,0831.1,5.01,0.00,29.9,27.3,00.0,38.4,31.4,13.6,0000.0,0004.28,0013.06,0002.32
2023-04-30 02:10:00,,0831.1,4.99,0.00,29.9,27.5,00.0,38.4,31.4,13.5,0000.0,0004.30,0012.69,0002.29
2023-04-30 02:11:00,,0831.1,5.01,0.00,29.9,27.7,00.0,38.4,31.3,13.5,0000.0,0004.32,0012.78,0002.28
2023-04-30 02:12:00,,0831.2,5.00,0.00,29.9,27.8,00.0,38.4,31.3,13.5,0000.0,0004.32,0013.21,0002.24
2023-04-30 02:13:00,,0831.2,4.99,0.00,29.8,27.9,00.0,38.4,31.3,13.5,0000.0,0004.32,0012.95,0002.23
2023-04-30 02:14:00,,0831.2,5.02,0.00,29.8,27.9,00.0,38.3,31.3,13.6,0000.0,0004.26,0012.17,0002.21
2023-04-30 02:15:00,,0831.2,5.00,0.00,29.8,28.0,00.0,38.3,31.3,13.7,0000.0,0004.30,0013.16,0002.19
2023-04-30 02:16:00,,0831.2,4.99,0.00,29.8,28.0,00.0,38.3,31.3,13.7,0000.0,0004.27,0013.18,0002.17
2023-04-30 02:17:00,,0831.2,4.99,0.00,29.8,28.1,00.0,38.3,31.3,13.6,0000.0,0004.25,0011.68,0002.18
2023-04-30 02:18:00,,0831.3,5.02,0.00,29.8,28.1,00.0,38.3,31.3,13.6,0000.0,0004.29,0011.42,0002.18
2023-04-30 02:19:00,,0831.2,5.00,0.00,29.8,28.1,00.0,38.3,31.3,13.4,0000.0,0004.25,0011.63,0002.17
2023-04-30 02:20:00,,0831.2,4.99,0.00,29.8,28.2,00.0,38.3,31.3,13.4,0000.0,0004.23,0012.33,0002.17
2023-04-30 02:21:00,,0831.3,4.99,0.00,29.8,28.2,00.0,38.3,31.3,13.4,0000.0,0004.29,0012.92,0002.18
2023-04-30 02:22:00,,0831.2,5.00,0.00,29.8,28.2,00.0,38.3,31.3,13.5,0000.0,0004.28,0012.84,0002.19
2023-04-30 02:23:00,,0831.2,5.01,0.00,29.8,28.2,00.0,38.3,31.3,13.5,0000.0,0004.25,0012.81,0002.18
2023-04-30 02:24:00,,0831.3,5.01,0.00,29.7,28.1,00.0,38.2,31.3,13.5,0000.0,0004.26,0013.57,0002.17
2023-04-30 02:25:00,,0831.3,5.00,0.00,29.7,28.1,00.0,38.2,31.2,13.5,0000.0,0004.25,0013.79,0002.16
2023-04-30 02:26:00,,0831.3,4.99,0.00,29.7,28.1,00.0,38.2,31.2,13.5,0000.0,0004.24,0013.80,0002.16
2023-04-30 02:27:00,,0831.3,5.00,0.00,29.7,28.0,00.0,38.2,31.2,13.5,0000.0,0004.27,0013.86,0002.16
2023-04-30 02:28:00,,0831.3,5.00,0.00,29.7,28.1,00.0,38.2,31.2,13.4,0000.0,0004.28,0014.04,0002.15
2023-04-30 02:29:00,,0831.3,5.00,0.00,29.7,28.0,00.0,38.2,31.2,13.5,0000.0,0004.26,0014.27,0002.14
2023-04-30 02:30:00,,0831.3,5.00,0.00,29.6,28.0,00.0,38.2,31.2,13.4,0000.0,0004.31,0014.43,0002.16
2023-04-30 02:31:00,,0831.3,5.00,0.00,29.6,28.0,00.0,38.2,31.1,13.4,0000.0,0004.31,0013.52,0002.20
2023-04-30 02:32:00,,0831.3,5.00,0.00,29.6,28.0,00.0,38.1,31.1,13.4,0000.0,0004.25,0013.17,0002.20
2023-04-30 02:33:00,,0831.3,5.00,0.00,29.6,28.0,00.0,38.1,31.1,13.4,0000.0,0004.25,0013.71,0002.19
2023-04-30 02:34:00,,0831.3,5.01,0.00,29.6,27.9,00.0,38.1,31.1,13.4,0000.0,0004.26,0013.98,0002.18
2023-04-30 02:35:00,,0831.3,5.00,0.00,29.6,27.9,00.0,38.1,31.1,13.4,0000.0,0004.17,0013.03,0002.16
2023-04-30 02:36:00,,0831.3,5.01,0.00,29.6,27.9,00.0,38.1,31.1,13.4,0000.0,0004.17,0012.58,0002.14
2023-04-30 02:37:00,,0831.3,5.00,0.00,29.6,27.9,00.0,38.1,31.1,13.3,0000.0,0004.23,0012.58,0002.13
2023-04-30 02:38:00,,0831.3,5.00,0.00,29.6,27.9,00.0,38.1,31.1,13.3,0000.0,0004.22,0012.04,0002.13
2023-04-30 02:39:00,,0831.3,5.00,0.00,29.6,27.9,00.0,38.1,31.1,13.5,0000.0,0004.18,0012.08,0002.14
2023-04-30 02:40:00,,0831.3,4.99,0.00,29.5,27.8,00.0,38.1,31.1,13.5,0000.0,0004.21,0012.22,0002.15
2023-04-30 02:41:00,,0831.3,5.00,0.00,29.5,27.8,00.0,38.1,31.0,13.4,0000.0,0004.22,0012.11,0002.15
2023-04-30 02:42:00,,0831.3,5.01,0.00,29.5,27.8,00.0,38.1,31.0,13.4,0000.0,0004.21,0012.63,0002.14
2023-04-30 02:43:00,,0831.3,5.00,0.00,29.5,27.8,00.0,38.0,31.0,13.4,0000.0,0004.25,0012.66,0002.14
2023-04-30 02:44:00,,0831.4,4.99,0.00,29.5,27.8,00.0,38.0,31.0,13.4,0000.0,0004.24,0012.13,0002.14
2023-04-30 02:45:00,,0831.3,5.00,0.00,29.5,27.8,00.0,38.0,31.0,13.3,0000.0,0004.26,0012.05,0002.15
2023-04-30 02:46:00,,0831.3,4.99,0.00,29.5,27.8,00.0,38.0,31.0,13.2,0000.0,0004.33,0013.58,0002.15
2023-04-30 02:47:00,,0831.3,5.00,0.00,29.5,27.8,00.0,38.0,31.0,13.2,0000.0,0004.30,0013.77,0002.17
2023-04-30 02:48:00,,0831.3,5.00,0.00,29.5,27.8,00.0,38.0,31.0,13.2,0000.0,0004.22,0013.28,0002.18
2023-04-30 02:49:00,,0831.3,4.99,0.00,29.5,27.8,00.0,38.0,31.0,13.1,0000.0,0004.17,0013.19,0002.18
2023-04-30 02:50:00,,0831.3,5.02,0.00,29.5,27.8,00.0,38.0,31.0,13.0,0000.0,0004.21,0013.12,0002.18
2023-04-30 02:51:00,,0831.4,5.00,0.00,29.5,27.9,00.0,38.0,31.0,13.0,0000.0,0004.21,0012.77,0002.20
2023-04-30 02:52:00,,0831.4,5.00,0.00,29.5,27.8,00.0,38.0,31.0,13.0,0000.0,0004.18,0012.99,0002.20
2023-04-30 02:53:00,,0831.3,5.00,0.00,29.4,27.8,00.0,38.0,30.9,13.0,0000.0,0004.19,0013.36,0002.19
2023-04-30 02:54:00,,0831.3,5.01,0.00,29.4,27.8,00.0,37.9,30.9,13.0,0000.0,0004.18,0013.11,0002.20
2023-04-30 02:55:00,,0831.3,5.01,0.00,29.4,27.8,00.0,37.9,30.9,13.0,0000.0,0004.20,0013.06,0002.18
2023-04-30 02:56:00,,0831.3,4.99,0.00,29.4,27.7,00.0,37.9,30.9,13.0,0000.0,0004.19,0012.66,0002.19
2023-04-30 02:57:00,,0831.3,5.00,0.00,29.4,27.7,00.0,37.9,30.9,13.0,0000.0,0004.18,0011.73,0002.19
2023-04-30 02:58:00,,0831.3,5.00,0.00,29.4,27.6,00.0,37.9,30.9,13.0,0000.0,0004.19,0012.10,0002.17
2023-04-30 02:59:00,,0831.3,4.99,0.00,29.4,27.6,00.0,37.9,30.9,13.0,0000.0,0004.25,0012.19,0002.17
